| time (UTC) | temp C | wind direction | speed KPH | gust KPH | rain 1hr cm | rain 24hr cm | rain mn cm | humidity % | barometer mb |
| 20260505153009 | 24 | 214 | 8.0 | 22.5 | 0.00 | 0.00 | 0.00 | 43 | 1010.1 |
| 20260505151518 | 24 | 243 | 11.3 | 22.5 | 0.00 | 0.00 | 0.00 | 44 | 1010.2 |
| 20260505124523 | 18 | 266 | 1.6 | 11.3 | 0.00 | 0.00 | 0.00 | 58 | 1011.2 |
| 20260505123025 | 18 | 188 | 6.4 | 12.9 | 0.00 | 0.00 | 0.00 | 59 | 1011.1 |
| 20260505121527 | 17 | 240 | 4.8 | 8.0 | 0.00 | 0.00 | 0.00 | 60 | 1011.0 |
| 20260505120024 | 16 | 300 | 0.0 | 4.8 | 0.00 | 0.00 | 0.00 | 66 | 1010.8 |
| 20260505114518 | 15 | 1 | 0.0 | 3.2 | 0.00 | 0.00 | 0.00 | 71 | 1010.8 |
| 20260505113023 | 14 | 53 | 0.0 | 3.2 | 0.00 | 0.00 | 0.00 | 70 | 1010.7 |
| 20260505111531 | 12 | 25 | 0.0 | 1.6 | 0.00 | 0.00 | 0.00 | 77 | 1010.8 |
| 20260505101530 | 11 | 194 | 0.0 | 3.2 | 0.00 | 0.00 | 0.00 | 77 | 1010.0 |
| 20260505100006 | 13 | 210 | 0.0 | 3.2 | 0.00 | 0.00 | 0.00 | 71 | 1009.9 |
| 20260505094507 | 12 | 241 | 0.0 | 3.2 | 0.00 | 0.00 | 0.00 | 74 | 1010.0 |
| 20260505093008 | 12 | 190 | 0.0 | 3.2 | 0.00 | 0.00 | 0.00 | 74 | 1009.8 |
| 20260505091505 | 12 | 181 | 0.0 | 1.6 | 0.00 | 0.00 | 0.00 | 71 | 1009.8 |
| 20260505090008 | 13 | 193 | 0.0 | 3.2 | 0.00 | 0.00 | 0.00 | 70 | 1009.7 |
| 20260505084513 | 12 | 203 | 0.0 | 4.8 | 0.00 | 0.00 | 0.00 | 71 | 1009.7 |
| 20260505083016 | 12 | 229 | 0.0 | 3.2 | 0.00 | 0.00 | 0.00 | 73 | 1009.7 |
| 20260505081506 | 13 | 218 | 0.0 | 3.2 | 0.00 | 0.00 | 0.00 | 70 | 1009.7 |
| 20260505080015 | 14 | 218 | 0.0 | 3.2 | 0.00 | 0.00 | 0.00 | 68 | 1009.6 |
| 20260505074508 | 15 | 298 | 0.0 | 3.2 | 0.00 | 0.00 | 0.00 | 65 | 1009.6 |
| 20260505073022 | 15 | 286 | 0.0 | 3.2 | 0.00 | 0.00 | 0.00 | 63 | 1009.5 |
| 20260505071509 | 16 | 312 | 0.0 | 6.4 | 0.00 | 0.00 | 0.00 | 61 | 1009.5 |
| 20260505070007 | 16 | 331 | 1.6 | 3.2 | 0.00 | 0.00 | 0.00 | 56 | 1009.6 |
| 20260505064509 | 17 | 316 | 1.6 | 3.2 | 0.00 | 0.00 | 0.00 | 54 | 1009.6 |
| 20260505063010 | 17 | 157 | 1.6 | 9.7 | 0.00 | 0.00 | 0.00 | 54 | 1009.8 |
| 20260505061517 | 16 | 226 | 3.2 | 8.0 | 0.00 | 0.00 | 0.00 | 53 | 1009.9 |
| 20260505060009 | 16 | 231 | 4.8 | 11.3 | 0.00 | 0.00 | 0.00 | 54 | 1009.8 |
| 20260505054507 | 16 | 237 | 6.4 | 11.3 | 0.00 | 0.00 | 0.00 | 55 | 1010.0 |
| 20260505053010 | 16 | 17 | 1.6 | 3.2 | 0.00 | 0.00 | 0.00 | 56 | 1009.9 |
| 20260505051514 | 16 | 298 | 0.0 | 6.4 | 0.00 | 0.00 | 0.00 | 54 | 1009.6 |
| 20260505041514 | 17 | 180 | 3.2 | 14.5 | 0.00 | 0.00 | 0.00 | 52 | 1009.4 |
| 20260505040020 | 17 | 254 | 3.2 | 11.3 | 0.00 | 0.00 | 0.00 | 51 | 1009.3 |
| 20260505034515 | 17 | 269 | 4.8 | 14.5 | 0.00 | 0.00 | 0.00 | 50 | 1009.2 |
| 20260505033007 | 17 | 360 | 4.8 | 16.1 | 0.00 | 0.00 | 0.00 | 49 | 1009.2 |
| 20260505031515 | 17 | 216 | 6.4 | 16.1 | 0.00 | 0.00 | 0.00 | 48 | 1009.2 |
| 20260505030016 | 17 | 245 | 6.4 | 16.1 | 0.00 | 0.00 | 0.00 | 47 | 1009.1 |
| 20260505024515 | 17 | 261 | 3.2 | 16.1 | 0.00 | 0.00 | 0.00 | 47 | 1009.0 |
| 20260505023014 | 17 | 234 | 6.4 | 20.9 | 0.00 | 0.00 | 0.00 | 46 | 1008.9 |
| 20260505021511 | 17 | 219 | 4.8 | 12.9 | 0.00 | 0.00 | 0.00 | 46 | 1009.2 |
| 20260505020025 | 17 | 100 | 3.2 | 14.5 | 0.00 | 0.00 | 0.00 | 46 | 1009.1 |
| 20260505014530 | 18 | 175 | 3.2 | 17.7 | 0.00 | 0.00 | 0.00 | 45 | 1009.2 |
| 20260505013023 | 18 | 231 | 4.8 | 12.9 | 0.00 | 0.00 | 0.00 | 45 | 1009.3 |
| 20260505011524 | 18 | 179 | 3.2 | 14.5 | 0.00 | 0.00 | 0.00 | 45 | 1009.1 |
| 20260505010016 | 18 | 193 | 6.4 | 16.1 | 0.00 | 0.00 | 0.00 | 44 | 1008.9 |
| 20260505004518 | 18 | 125 | 4.8 | 12.9 | 0.00 | 0.00 | 0.00 | 43 | 1008.8 |
| 20260505003024 | 18 | 223 | 4.8 | 12.9 | 0.00 | 0.00 | 0.00 | 43 | 1008.7 |
| 20260505001508 | 19 | 218 | 4.8 | 17.7 | 0.00 | 0.00 | 0.00 | 42 | 1008.7 |
| 20260505000012 | 20 | 239 | 6.4 | 20.9 | 0.00 | 0.00 | 0.00 | 41 | 1008.6 |
| 20260504234517 | 20 | 146 | 3.2 | 12.9 | 0.00 | 0.00 | 0.00 | 41 | 1008.6 |
| 20260504233020 | 21 | 157 | 6.4 | 14.5 | 0.00 | 0.00 | 0.00 | 38 | 1008.5 |
| 20260504231504 | 21 | 223 | 6.4 | 20.9 | 0.00 | 0.00 | 0.00 | 37 | 1008.4 |
| 20260504230010 | 21 | 216 | 6.4 | 20.9 | 0.00 | 0.00 | 0.00 | 38 | 1008.4 |
| 20260504224518 | 22 | 212 | 11.3 | 29.0 | 0.00 | 0.00 | 0.00 | 36 | 1008.4 |
| 20260504223020 | 22 | 240 | 12.9 | 25.7 | 0.00 | 0.00 | 0.00 | 36 | 1008.5 |
| 20260504221522 | 22 | 192 | 9.7 | 25.7 | 0.00 | 0.00 | 0.00 | 36 | 1008.3 |
| 20260504220011 | 22 | 230 | 6.4 | 20.9 | 0.00 | 0.00 | 0.00 | 35 | 1008.4 |
| 20260504214511 | 22 | 220 | 9.7 | 17.7 | 0.00 | 0.00 | 0.00 | 36 | 1008.5 |
| 20260504213026 | 22 | 224 | 6.4 | 24.1 | 0.00 | 0.00 | 0.00 | 35 | 1008.5 |
| 20260504211532 | 22 | 126 | 4.8 | 17.7 | 0.00 | 0.00 | 0.00 | 40 | 1008.6 |
| 20260504210022 | 22 | 257 | 4.8 | 25.7 | 0.00 | 0.00 | 0.00 | 35 | 1008.7 |
| 20260504204515 | 22 | 221 | 4.8 | 16.1 | 0.00 | 0.00 | 0.00 | 36 | 1008.7 |
| 20260504203019 | 22 | 230 | 9.7 | 17.7 | 0.00 | 0.00 | 0.00 | 36 | 1008.9 |
| 20260504201522 | 22 | 214 | 4.8 | 14.5 | 0.00 | 0.00 | 0.00 | 39 | 1009.1 |
| 20260504200024 | 22 | 216 | 11.3 | 20.9 | 0.00 | 0.00 | 0.00 | 36 | 1009.3 |
| 20260504194510 | 22 | 263 | 6.4 | 24.1 | 0.00 | 0.00 | 0.00 | 40 | 1009.4 |
| 20260504193015 | 21 | 263 | 14.5 | 27.4 | 0.00 | 0.00 | 0.00 | 36 | 1009.9 |
| 20260504191525 | 21 | 242 | 16.1 | 25.7 | 0.00 | 0.00 | 0.00 | 35 | 1010.0 |
| 20260504190026 | 21 | 277 | 11.3 | 20.9 | 0.00 | 0.00 | 0.00 | 36 | 1010.1 |
| 20260504184536 | 20 | 216 | 4.8 | 24.1 | 0.00 | 0.00 | 0.00 | 36 | 1010.2 |
| 20260504183012 | 21 | 288 | 4.8 | 20.9 | 0.00 | 0.00 | 0.00 | 38 | 1010.3 |
| 20260504181517 | 21 | 351 | 9.7 | 22.5 | 0.00 | 0.00 | 0.00 | 39 | 1010.6 |
| 20260504180025 | 20 | 257 | 9.7 | 25.7 | 0.00 | 0.00 | 0.00 | 37 | 1010.8 |
| 20260504174526 | 20 | 269 | 14.5 | 22.5 | 0.00 | 0.00 | 0.00 | 37 | 1011.0 |
| 20260504173013 | 20 | 228 | 11.3 | 20.9 | 0.00 | 0.00 | 0.00 | 38 | 1011.2 |
| 20260504171522 | 20 | 212 | 8.0 | 22.5 | 0.00 | 0.00 | 0.00 | 37 | 1011.5 |